Location: Antioch Baptist Church
(32.6696°N, 85.7327°W)
Time: 11:53:34
(UTC+00:00)

USA 215 - Pass Details

Date: 14 July 2020
Orbit: 1102 x 1106 km, 123.0° (Epoch: 31 July)

Event Time Altitude Azimuth Distance (km) Brightness Sun altitude
Rises 03:35:17 0° 43° (NE) 3,920 6.3 -27.0°
Reaches altitude 10° 03:37:46 10° 44° (NE) 2,960 5.6 -27.3°
Maximum altitude 03:44:19 81° 132° (SE) 1,116 3.1 -28.1°
Enters shadow 03:46:27 47° 212° (SSW) 1,428 3.6 -28.3°
